COSMOS 2251 DEB, 38212

Orbit data source: Space-Track

COSMOS 2251 DEB, 38212 is space debris in LEO originally from a launch on Wed, 16 Jun 1993 UTC launched from the Plesetsk Missile And Space Complex (PKMTR). The debris from Iridium 33, an American commercial communications satellite, has been tracked extensively since its accidental collision with the defunct Russian satellite Cosmos 2251 in 2009. This event, occurring at high speed in low Earth orbit (LEO), generated thousands of pieces of space debris, significantly increasing the risk of further collisions. The Iridium 33 debris cloud has impacted space traffic management and orbital debris mitigation strategies, making it a subject of ongoing study in space situational awareness.

Loading next visibility...
Identifier
38212, 1993-036BTC
Orbit
LEO
Country
Flag of CISCIS
Related business
Manufacturer
Unknown
Mission
Spacecraft
Bus & Motor
Unknown
Mass
Unknown
Launch date (UTC)
1993-06-16 (33 years ago)
Launch vehicle
Unknown
Launch site
Plesetsk Missile And Space Complex (PKMTR)
Object type
Payload
Rocket body
Debris
Shape & HBR
Unknown shape, 0.1 m
Radar Cross Section
Small (<0.1 m²)

Expand to show TLE details & history
Last TLE update: 3 days ago

TLE from 3 days ago
0 COSMOS 2251 DEB
1 38212U 93036BTC 25347.96861935  .00003901  00000-0  51158-3 0  9991
2 38212  74.0527  74.1891 0092348 140.8526 219.9379 14.77697426813280
Epoch: 2025-12-13T23:14Z
TLE epoch observation values (Epoch: 2025-12-13T23:14:48.711Z)
Latitude
-0.0001°
Longitude
2.59783°
Altitude
689.187 km
Speed
7.485 km/s
True Right ascension
04h 56m 45s
True Declination
0° 00' 00"
Sunlit
Object was in full shadow at epoch
Visualization orbit readout
Latitude
Unknown
Longitude
Unknown
Altitude
Unknown
Speed
Unknown
Apparent Right ascension
Unknown
Apparent Declination
Unknown
Sunlit
N/A
Visualization observer readout
Local Sidereal Time
10:01:07
Azimuth
Unknown
Elevation
Unknown
Doppler factor
Unknown
Orbital elements
Apogee altitude
698.935 km
Perigee altitude
569.421 km
Semi-major axis
7,012.315 km
Eccentricity
0.00923
Inclination
74.0527°
RAAN
74.1891°
Arg. of periapsis
140.8526°
True anomaly
219.26454°
Mean anomaly
219.9379°
Eccentric anomaly
219.60062°
Mean motion
3.69616 °/min
Orbital period
97.4 mins
BSTAR
0.00051158

Documentation

Showing up to 5 results
|